Temp_Advection
nan nan nan nan nan nan nan nan nan nan nan nan nan nan nan nan nan nan nan nan nan nan nan nan nan nan nan nan nan nan nan nan nan
nan 0 0 0 0 0 -0 -0 -0 0 0 0 -0 0 0 0 -0 -0 0 -0 0 0 0 0 -0 -0 0 -0 -0 0 -0 0 nan
nan -0 0 -0 0 0 -0 -0 0 0 -0 0 0 -0 -0 -0 -0 -0 -0 -0 0 0 0 0 -0 -0 -0 -0 -0 0 0 1 nan
nan -0 -0 -0 0 0 0 -0 0 0 -0 -0 0 -0 -0 -0 -0 -0 -0 -0 0 0 0 -0 -0 -0 0 -0 -0 1 1 0 nan
nan -0 -0 0 0 0 0 0 0 0 0 -0 0 -0 -0 -0 -0 -0 -0 -0 -0 0 0 -0 0 0 0 0 -0 1 1 0 nan
nan 0 0 0 0 1 0 -0 -0 0 1 0 0 0 -0 -0 -0 -0 -0 0 0 -0 -0 0 -0 -0 0 -0 0 0 0 0 nan
nan 0 1 1 0 1 1 -0 -0 0 1 0 -0 -0 -0 -0 -0 -0 -0 0 -0 -0 0 0 0 -0 -0 0 0 0 0 0 nan
nan 0 1 1 0 0 1 0 0 0 0 0 -0 -0 -0 -0 -0 -1 -1 0 0 -0 -0 -0 0 0 0 -0 0 0 0 0 nan
nan 0 0 0 0 -0 0 1 0 0 0 0 0 0 -0 -0 -0 -0 -0 -1 -0 -0 0 0 0 -0 0 -0 0 0 0 -0 nan
nan 0 -0 -0 -0 -0 0 0 0 -0 0 0 0 -0 0 -0 -0 -1 -0 -0 -0 -1 -0 0 0 -0 0 -0 -0 0 0 0 nan
nan 0 -0 0 0 0 0 1 0 0 -0 -0 0 -0 -0 -0 0 -0 -0 -0 -0 -1 -0 -0 0 -0 -0 0 -0 -0 0 -0 nan
nan -0 -0 0 1 0 0 1 0 0 -0 -0 0 0 0 0 0 0 -0 -0 -0 0 -0 0 0 0 -0 0 -0 -0 -0 0 nan
nan -0 -0 0 1 1 0 0 0 0 0 1 0 0 0 0 0 0 0 0 0 0 -0 -0 0 0 0 0 0 -0 -1 -0 nan
nan 0 0 0 0 0 0 0 0 0 1 0 1 1 0 0 0 1 1 1 0 -0 -0 -0 0 1 0 -0 0 0 -0 -1 nan
nan 0 0 -0 0 0 0 0 0 0 0 0 0 1 1 0 0 0 1 0 -0 -0 0 -0 0 0 1 0 0 0 -0 -1 nan
nan 0 -0 0 0 0 0 0 0 0 0 0 0 0 0 0 0 0 0 -0 -0 0 0 -0 0 0 0 0 0 0 0 0 nan
nan 0 -1 0 -0 -0 0 0 0 0 1 1 0 0 0 0 0 0 -0 -0 0 0 0 -0 -0 0 0 0 0 -0 -0 0 nan
nan -0 1 -0 -0 0 0 0 0 0 1 1 -0 -0 -0 0 0 0 0 0 0 0 0 -0 -0 -0 -0 -0 -0 -0 -0 0 nan
nan -0 1 -0 0 0 0 0 0 0 0 0 -0 -0 -0 -0 0 0 0 0 -0 -0 -0 -0 -0 -0 -0 -0 -0 -0 -0 -0 nan
nan nan nan nan nan nan nan nan nan nan nan nan nan nan nan nan nan nan nan nan nan nan nan nan nan nan nan nan nan nan nan nan nan
Wind_Speed
29 26 24 21 20 17 16 26 24 24 22 20 17 15 16 15 13 14 13 12 14 15 17 14 12 9 12 18 17 22 20 21 21
30 27 24 20 17 16 21 32 27 25 22 16 15 12 12 12 11 13 11 13 14 15 14 12 10 15 20 16 18 21 22 21 20
30 26 20 16 16 17 23 32 28 24 19 16 12 11 10 8 11 13 13 10 13 15 13 11 13 12 17 16 15 21 22 23 21
26 21 18 16 15 19 26 32 29 26 20 17 15 12 8 5 12 12 11 11 12 16 15 14 14 11 18 17 18 23 24 23 20
25 21 17 17 19 23 29 36 30 24 20 17 13 11 7 9 13 15 11 14 14 13 15 15 14 17 15 18 23 23 24 19 18
26 21 20 24 25 26 28 36 33 25 22 18 14 10 9 11 12 13 14 15 17 14 18 17 19 18 20 17 21 21 21 18 17
27 23 24 29 28 28 28 34 31 26 22 18 14 13 15 12 13 17 16 19 16 13 15 17 21 17 15 16 19 20 21 17 16
29 28 34 32 30 31 28 30 31 27 22 19 16 14 15 13 13 15 17 17 18 15 18 15 19 15 17 16 18 17 17 17 16
32 35 38 36 35 32 29 30 33 30 25 21 16 16 16 16 15 18 16 18 17 15 15 15 19 15 20 19 17 16 12 12 13
36 39 40 37 36 32 31 32 34 30 27 22 17 17 15 14 13 16 17 17 15 14 15 16 16 17 21 20 17 19 18 16 12
40 41 41 38 37 35 33 31 30 27 27 23 19 15 15 12 12 14 16 17 15 14 13 14 13 18 13 17 17 15 14 18 15
43 42 41 39 37 35 35 31 28 27 24 21 20 16 17 16 15 14 16 14 8 6 7 5 12 19 13 10 12 12 12 11 10
44 43 41 41 38 35 35 35 32 30 27 25 23 21 17 19 17 15 16 12 8 5 6 8 15 19 14 8 9 8 11 15 14
44 43 40 40 40 39 39 36 35 35 31 28 24 22 20 19 18 16 15 15 14 7 5 12 13 20 18 6 9 12 13 12 14
47 43 40 41 39 39 40 38 37 35 35 32 25 21 21 20 19 17 15 16 14 10 9 13 13 16 19 10 9 11 11 14 13
49 45 42 43 42 44 40 40 39 35 37 34 26 20 18 21 21 22 18 13 14 14 16 16 14 12 20 14 6 8 11 11 9
51 47 44 44 45 45 46 44 42 39 40 41 31 22 18 17 19 19 16 14 15 18 17 17 17 15 16 14 12 8 7 8 12
55 51 47 43 44 45 45 47 47 45 42 41 29 20 13 24 19 18 17 18 19 18 19 15 15 15 14 14 12 12 9 5 11
58 53 50 42 42 45 46 45 47 47 47 43 33 20 22 19 20 20 19 20 20 20 19 18 16 15 12 12 11 12 13 7 9
59 55 51 46 44 45 45 45 48 48 48 47 34 27 17 26 24 29 27 21 21 21 20 18 16 15 13 12 12 12 14 13 9
Wind_Direction
161 163 160 158 169 168 164 156 142 142 137 131 120 128 127 121 111 98 100 114 106 104 103 94 93 87 75 77 74 78 73 79 83
170 164 159 159 161 159 150 154 150 147 142 141 135 135 131 133 145 109 108 106 101 110 108 104 89 81 82 79 78 85 81 81 79
164 162 162 167 168 161 152 156 150 150 140 147 147 141 132 119 115 108 110 108 100 112 112 110 88 79 89 88 78 89 84 88 79
170 170 167 174 173 168 159 159 151 151 150 150 146 141 134 141 124 121 127 122 100 105 111 97 90 73 98 87 81 92 93 86 88
169 166 170 175 160 150 154 156 151 151 155 148 150 135 126 103 113 114 120 118 106 109 107 98 91 94 92 89 94 93 89 92 94
170 170 177 167 154 150 154 154 156 159 152 154 154 137 131 111 101 132 120 117 112 109 108 108 100 83 88 91 98 102 101 102 103
175 175 173 161 159 153 152 159 158 162 156 157 155 140 130 107 105 121 137 121 119 115 111 107 105 104 108 88 104 109 106 100 109
177 173 165 162 159 155 152 161 159 159 164 167 161 155 136 112 102 93 108 123 121 118 109 107 109 95 108 93 99 103 114 105 104
180 174 169 167 163 158 158 161 160 162 167 161 156 146 136 116 106 103 93 120 112 113 112 105 104 97 104 97 95 90 104 114 103
181 173 172 170 165 162 160 165 166 162 171 163 166 142 136 122 117 111 107 105 92 97 111 105 112 103 99 95 102 101 91 86 93
181 175 175 173 167 170 167 168 172 166 154 157 151 163 145 131 136 126 129 125 109 108 101 106 110 114 107 116 110 104 103 104 92
184 180 179 176 173 176 173 170 175 180 171 168 168 171 162 153 147 150 144 145 157 186 180 176 125 111 114 101 119 112 105 103 105
188 184 183 179 175 179 178 168 176 176 176 177 178 169 169 169 162 160 161 166 185 202 170 136 130 122 116 126 95 100 121 98 91
191 188 185 181 181 180 170 171 177 172 175 174 177 180 177 179 178 184 187 198 215 241 180 135 137 133 131 134 99 100 106 125 96
194 190 188 182 182 187 178 180 181 173 167 163 166 170 172 173 174 181 191 200 217 226 172 148 130 145 140 134 116 98 105 112 119
196 193 186 185 184 181 180 182 183 180 177 165 165 171 177 195 201 204 211 217 219 198 175 150 146 135 138 140 141 111 106 100 120
197 195 190 189 187 185 187 188 183 185 183 174 165 164 175 194 200 207 214 202 174 169 163 156 157 151 145 144 150 126 107 98 111
200 196 197 194 193 195 194 194 191 184 186 182 170 157 187 176 193 205 202 196 180 177 165 159 165 169 164 162 153 150 147 128 121
199 197 197 196 200 195 194 195 195 191 187 187 185 177 182 171 176 196 195 195 189 186 180 177 175 175 174 171 168 163 157 171 136
201 199 199 197 201 199 196 195 196 197 193 197 195 199 195 186 175 177 187 190 190 188 189 186 184 183 179 178 175 169 171 180 165
Height
1519 1522 1524 1527 1527 1531 1535 1539 1544 1545 1547 1549 1549 1550 1550 1552 1553 1552 1553 1553 1554 1554 1555 1555 1554 1553 1552 1552 1551 1551 1550 1550 1550
1518 1522 1523 1526 1528 1531 1534 1537 1542 1546 1547 1550 1551 1552 1553 1553 1553 1554 1554 1554 1555 1555 1556 1556 1555 1554 1554 1554 1553 1552 1552 1553 1552
1519 1521 1524 1527 1528 1530 1534 1537 1542 1546 1549 1551 1553 1554 1554 1553 1553 1555 1555 1556 1555 1555 1556 1557 1556 1555 1555 1555 1554 1554 1555 1555 1555
1519 1521 1522 1525 1529 1530 1532 1537 1542 1544 1549 1551 1553 1555 1555 1555 1554 1555 1556 1557 1557 1556 1557 1558 1558 1556 1556 1557 1555 1556 1557 1558 1558
1515 1519 1521 1524 1527 1530 1532 1536 1542 1544 1547 1551 1554 1555 1556 1555 1555 1556 1557 1558 1558 1558 1558 1558 1559 1559 1558 1558 1558 1559 1560 1561 1561
1512 1516 1519 1522 1526 1529 1534 1537 1540 1544 1546 1550 1553 1555 1556 1556 1555 1556 1557 1558 1560 1560 1559 1560 1561 1561 1561 1561 1561 1562 1562 1563 1562
1512 1514 1517 1520 1524 1530 1534 1537 1541 1544 1546 1548 1551 1554 1555 1556 1557 1557 1558 1559 1560 1560 1560 1561 1562 1563 1563 1562 1563 1564 1564 1564 1564
1508 1511 1515 1519 1523 1528 1532 1536 1540 1544 1546 1548 1550 1553 1555 1556 1557 1557 1556 1559 1560 1561 1562 1562 1563 1564 1563 1564 1564 1565 1566 1566 1566
1504 1507 1512 1516 1521 1525 1530 1534 1539 1543 1545 1547 1550 1553 1555 1556 1558 1558 1559 1560 1561 1562 1562 1563 1565 1566 1565 1567 1567 1568 1568 1568 1567
1501 1504 1510 1514 1519 1525 1529 1533 1537 1540 1544 1547 1550 1553 1555 1557 1559 1559 1560 1562 1564 1564 1564 1565 1566 1568 1568 1569 1570 1570 1570 1569 1569
1498 1502 1507 1513 1517 1524 1529 1531 1535 1539 1542 1546 1550 1553 1556 1558 1560 1561 1562 1564 1565 1566 1567 1567 1567 1569 1571 1571 1571 1572 1572 1572 1571
1495 1499 1505 1510 1515 1522 1527 1532 1535 1539 1542 1546 1550 1553 1557 1559 1561 1562 1564 1565 1566 1568 1568 1568 1568 1570 1573 1572 1573 1573 1573 1573 1573
1492 1497 1502 1508 1512 1519 1524 1529 1532 1537 1539 1544 1549 1552 1556 1559 1561 1563 1565 1566 1566 1567 1568 1568 1569 1571 1575 1575 1574 1573 1574 1575 1574
1489 1494 1500 1506 1509 1517 1521 1527 1531 1534 1539 1543 1547 1551 1555 1558 1560 1562 1564 1565 1566 1567 1568 1569 1570 1572 1575 1576 1575 1575 1575 1576 1576
1485 1491 1495 1502 1507 1514 1518 1524 1530 1534 1537 1541 1546 1550 1554 1556 1559 1561 1562 1563 1565 1567 1568 1569 1571 1573 1575 1577 1577 1577 1577 1577 1578
1481 1486 1491 1496 1502 1508 1515 1521 1527 1532 1536 1538 1544 1550 1553 1556 1558 1559 1560 1562 1563 1565 1567 1569 1572 1573 1574 1577 1578 1578 1578 1578 1578
1475 1480 1486 1491 1497 1505 1510 1514 1520 1527 1531 1532 1539 1547 1553 1554 1555 1557 1559 1560 1561 1564 1566 1569 1571 1573 1575 1577 1579 1580 1580 1580 1580
1467 1474 1480 1487 1493 1498 1504 1509 1515 1520 1527 1530 1529 1540 1543 1549 1553 1554 1557 1558 1561 1563 1565 1568 1570 1572 1574 1575 1578 1580 1581 1581 1581
1460 1467 1475 1480 1488 1493 1498 1504 1509 1515 1520 1528 1528 1529 1532 1538 1548 1551 1553 1556 1559 1561 1564 1566 1569 1571 1573 1575 1577 1579 1580 1582 1583
1453 1458 1468 1475 1482 1487 1493 1498 1502 1510 1515 1520 1523 1528 1531 1533 1536 1542 1547 1552 1556 1560 1562 1565 1567 1570 1571 1574 1575 1577 1579 1581 1582